Retour au catalogue

FENGYUN 1C DEB

ActifPO
NORAD 31857·DEBRIS·🇨🇳 China

Lancé May 10, 1999 depuis Taiyuan Satellite Launch Center

Loading…

Prochains Passages (prochaines 24 heures)

TLE

PériméSource: Space-Track

Époque: Aug 23, 2026, 02:05 UTC

1 31857U 99025CJX 26235.08746538  .00001005  00000-0  95958-3 0  9993
2 31857  96.1879 177.7712 0306791 296.9768  60.0358 13.62820596650792

Suivez FENGYUN 1C DEB en temps réel avec AllMySat

Download on the App Store